Time,TemperatureF,DewpointF,PressureIn,WindDirection,WindDirectionDegrees,WindSpeedMPH,WindSpeedGustMPH,Humidity,HourlyPrecipIn,Conditions,Clouds,dailyrainin,SoftwareType,DateUTC
2013-05-06 00:02:00,54.3,46.2,30.00,North,0,0.0,6.7,74,0.00,,,0.00,WUHU21623XXSP,2013-05-06 05:02:00,
2013-05-06 00:07:00,54.3,46.2,30.00,North,0,0.0,0.0,74,0.00,,,0.00,WUHU21623XXSP,2013-05-06 05:07:00,
2013-05-06 00:12:00,54.3,46.2,30.00,NNW,337,0.0,7.2,74,0.00,,,0.00,WUHU21623XXSP,2013-05-06 05:12:00,
2013-05-06 00:17:00,54.3,46.2,30.00,NNW,337,0.0,7.2,74,0.00,,,0.00,WUHU21623XXSP,2013-05-06 05:17:00,
2013-05-06 00:22:00,54.5,46.2,30.00,North,0,7.4,7.4,74,0.00,,,0.00,WUHU21623XXSP,2013-05-06 05:22:00,
2013-05-06 00:27:00,54.7,46.5,29.99,NNW,337,0.0,7.4,74,0.00,,,0.00,WUHU21623XXSP,2013-05-06 05:27:00,
2013-05-06 00:32:00,54.7,46.9,29.99,NNW,337,8.3,8.3,75,0.00,,,0.00,WUHU21623XXSP,2013-05-06 05:32:00,
2013-05-06 00:37:00,54.9,47.0,29.99,North,0,6.9,8.3,74,0.00,,,0.00,WUHU21623XXSP,2013-05-06 05:37:00,
2013-05-06 00:42:00,55.0,46.9,29.99,NNW,337,7.8,7.8,74,0.00,,,0.00,WUHU21623XXSP,2013-05-06 05:42:00,
2013-05-06 00:47:00,55.0,46.9,29.99,North,0,3.8,7.8,73,0.00,,,0.00,WUHU21623XXSP,2013-05-06 05:47:00,
2013-05-06 00:52:00,55.0,46.5,29.99,NNW,337,7.6,7.6,73,0.00,,,0.00,WUHU21623XXSP,2013-05-06 05:52:00,
2013-05-06 00:57:00,55.0,46.5,29.98,NNW,337,3.1,7.6,73,0.00,,,0.00,WUHU21623XXSP,2013-05-06 05:57:00,
2013-05-06 01:02:00,55.0,46.5,29.98,North,0,0.0,7.6,73,0.00,,,0.00,WUHU21623XXSP,2013-05-06 06:02:00,
2013-05-06 01:07:00,55.0,46.2,29.98,North,0,0.0,0.0,72,0.00,,,0.00,WUHU21623XXSP,2013-05-06 06:07:00,
2013-05-06 01:12:00,55.0,46.2,29.98,NNW,337,0.0,0.0,72,0.00,,,0.00,WUHU21623XXSP,2013-05-06 06:12:00,
2013-05-06 01:17:00,55.0,46.2,29.99,North,0,0.0,0.0,72,0.00,,,0.00,WUHU21623XXSP,2013-05-06 06:17:00,
2013-05-06 01:22:00,55.2,46.0,29.99,NNW,337,0.0,5.6,71,0.00,,,0.00,WUHU21623XXSP,2013-05-06 06:22:00,
2013-05-06 01:27:00,55.2,46.0,29.98,NNW,337,0.0,8.1,71,0.00,,,0.00,WUHU21623XXSP,2013-05-06 06:27:00,
2013-05-06 01:32:00,55.2,46.0,29.98,North,0,2.9,8.1,70,0.00,,,0.00,WUHU21623XXSP,2013-05-06 06:32:00,
2013-05-06 01:37:00,55.2,45.5,29.98,North,0,0.7,2.9,70,0.00,,,0.00,WUHU21623XXSP,2013-05-06 06:37:00,
2013-05-06 01:42:00,55.0,45.8,29.98,NNW,337,4.3,4.3,71,0.00,,,0.00,WUHU21623XXSP,2013-05-06 06:42:00,
2013-05-06 01:47:00,55.0,45.5,29.98,NNW,337,7.4,7.4,70,0.00,,,0.00,WUHU21623XXSP,2013-05-06 06:47:00,
2013-05-06 01:52:00,55.0,45.5,29.97,North,0,1.6,7.4,70,0.00,,,0.00,WUHU21623XXSP,2013-05-06 06:52:00,
2013-05-06 01:57:00,55.0,45.5,29.97,North,0,0.0,7.4,70,0.00,,,0.00,WUHU21623XXSP,2013-05-06 06:57:00,
2013-05-06 02:02:00,55.0,45.5,29.97,NNW,337,0.0,4.7,70,0.00,,,0.00,WUHU21623XXSP,2013-05-06 07:02:00,
2013-05-06 02:07:00,55.0,45.7,29.97,North,0,0.0,0.0,70,0.00,,,0.00,WUHU21623XXSP,2013-05-06 07:07:00,
2013-05-06 02:12:00,55.0,45.5,29.97,North,0,0.0,2.5,70,0.00,,,0.00,WUHU21623XXSP,2013-05-06 07:12:00,
2013-05-06 02:17:00,54.7,45.5,29.98,NNE,22,0.0,2.5,71,0.00,,,0.00,WUHU21623XXSP,2013-05-06 07:17:00,
2013-05-06 02:22:00,54.3,45.7,29.97,NNE,22,0.0,0.0,72,0.00,,,0.00,WUHU21623XXSP,2013-05-06 07:22:00,
2013-05-06 02:27:00,53.8,45.3,29.97,NNE,22,0.0,0.0,73,0.00,,,0.00,WUHU21623XXSP,2013-05-06 07:27:00,
2013-05-06 02:32:00,53.6,45.1,29.97,NNE,22,0.0,0.0,73,0.00,,,0.00,WUHU21623XXSP,2013-05-06 07:32:00,
2013-05-06 02:37:00,53.4,45.0,29.97,NNE,22,0.0,0.0,73,0.00,,,0.00,WUHU21623XXSP,2013-05-06 07:37:00,
2013-05-06 02:42:00,53.2,44.8,29.96,NNE,22,0.0,0.0,73,0.00,,,0.00,WUHU21623XXSP,2013-05-06 07:42:00,
2013-05-06 02:47:00,52.9,44.8,29.96,NNE,22,0.0,0.0,73,0.00,,,0.00,WUHU21623XXSP,2013-05-06 07:47:00,
2013-05-06 02:52:00,52.7,44.5,29.96,NNE,22,0.0,0.0,73,0.00,,,0.00,WUHU21623XXSP,2013-05-06 07:52:00,
2013-05-06 02:57:00,52.7,45.0,29.96,NNE,22,0.0,0.0,74,0.00,,,0.00,WUHU21623XXSP,2013-05-06 07:57:00,
2013-05-06 03:02:00,52.7,44.7,29.96,North,0,4.5,4.5,74,0.00,,,0.00,WUHU21623XXSP,2013-05-06 08:02:00,
2013-05-06 03:07:00,52.5,44.5,29.96,NNW,337,0.0,4.5,74,0.00,,,0.00,WUHU21623XXSP,2013-05-06 08:07:00,
2013-05-06 03:13:00,52.3,44.3,29.96,NNW,337,2.9,4.5,74,0.00,,,0.00,WUHU21623XXSP,2013-05-06 08:13:00,
2013-05-06 03:18:00,52.2,44.3,29.95,NNW,337,7.8,7.8,74,0.00,,,0.00,WUHU21623XXSP,2013-05-06 08:18:00,
2013-05-06 03:23:00,52.2,44.1,29.95,NNW,337,2.7,7.8,74,0.00,,,0.00,WUHU21623XXSP,2013-05-06 08:23:00,
2013-05-06 03:28:00,52.3,44.1,29.95,NNW,337,2.7,7.8,74,0.00,,,0.00,WUHU21623XXSP,2013-05-06 08:28:00,
2013-05-06 03:33:00,52.3,44.3,29.95,North,0,4.7,4.7,74,0.00,,,0.00,WUHU21623XXSP,2013-05-06 08:33:00,
2013-05-06 03:38:00,52.5,44.5,29.95,NNW,337,2.0,4.7,74,0.00,,,0.00,WUHU21623XXSP,2013-05-06 08:38:00,
2013-05-06 03:42:00,52.5,44.5,29.95,NNW,337,1.3,7.6,74,0.00,,,0.00,WUHU21623XXSP,2013-05-06 08:42:00,
2013-05-06 03:47:00,52.3,44.3,29.95,NNW,337,5.8,7.6,74,0.00,,,0.00,WUHU21623XXSP,2013-05-06 08:47:00,
2013-05-06 03:53:00,52.3,44.3,29.95,North,0,1.6,5.8,73,0.00,,,0.00,WUHU21623XXSP,2013-05-06 08:53:00,
2013-05-06 03:58:00,52.3,44.0,29.95,NNW,337,7.4,7.4,73,0.00,,,0.00,WUHU21623XXSP,2013-05-06 08:58:00,
2013-05-06 04:03:00,52.5,44.1,29.95,North,0,4.3,7.4,73,0.00,,,0.00,WUHU21623XXSP,2013-05-06 09:03:00,
2013-05-06 04:08:00,52.5,44.1,29.95,NNW,337,4.7,4.7,73,0.00,,,0.00,WUHU21623XXSP,2013-05-06 09:08:00,
2013-05-06 04:13:00,52.5,44.1,29.95,NNW,337,8.7,8.7,73,0.00,,,0.00,WUHU21623XXSP,2013-05-06 09:13:00,
2013-05-06 04:18:00,52.5,44.1,29.96,NNW,337,7.6,8.7,73,0.00,,,0.00,WUHU21623XXSP,2013-05-06 09:18:00,
2013-05-06 04:23:00,52.3,44.0,29.95,NNW,337,7.2,7.6,73,0.00,,,0.00,WUHU21623XXSP,2013-05-06 09:23:00,
2013-05-06 04:28:00,52.2,43.8,29.96,North,0,2.2,7.6,73,0.00,,,0.00,WUHU21623XXSP,2013-05-06 09:28:00,
2013-05-06 04:33:00,52.0,43.6,29.95,North,0,6.5,6.5,73,0.00,,,0.00,WUHU21623XXSP,2013-05-06 09:33:00,
2013-05-06 04:38:00,52.0,44.0,29.95,North,0,4.3,6.5,74,0.00,,,0.00,WUHU21623XXSP,2013-05-06 09:38:00,
2013-05-06 04:43:00,52.0,44.0,29.95,North,0,0.0,4.5,74,0.00,,,0.00,WUHU21623XXSP,2013-05-06 09:43:00,
2013-05-06 04:48:00,52.0,44.0,29.96,NNW,337,2.5,6.9,74,0.00,,,0.00,WUHU21623XXSP,2013-05-06 09:48:00,
2013-05-06 04:53:00,52.0,44.0,29.95,North,0,0.2,4.7,74,0.00,,,0.00,WUHU21623XXSP,2013-05-06 09:53:00,
2013-05-06 04:58:00,52.0,44.0,29.96,NNW,337,7.2,7.2,74,0.00,,,0.00,WUHU21623XXSP,2013-05-06 09:58:00,
2013-05-06 05:03:00,52.2,44.0,29.96,NNW,337,0.7,7.2,74,0.00,,,0.00,WUHU21623XXSP,2013-05-06 10:03:00,
2013-05-06 05:08:00,52.2,44.1,29.96,NNW,337,7.8,7.8,74,0.00,,,0.00,WUHU21623XXSP,2013-05-06 10:08:00,
2013-05-06 05:13:00,52.3,44.3,29.96,North,0,2.0,7.8,74,0.00,,,0.00,WUHU21623XXSP,2013-05-06 10:13:00,
2013-05-06 05:18:00,52.5,44.5,29.96,NNW,337,6.7,11.9,74,0.00,,,0.00,WUHU21623XXSP,2013-05-06 10:18:00,
2013-05-06 05:23:00,52.9,44.5,29.95,NNW,337,2.9,11.9,73,0.00,,,0.00,WUHU21623XXSP,2013-05-06 10:23:00,
2013-05-06 05:28:00,53.2,44.8,29.96,North,0,0.0,3.4,73,0.00,,,0.00,WUHU21623XXSP,2013-05-06 10:28:00,
2013-05-06 05:34:00,53.4,44.6,29.96,North,0,0.0,4.7,72,0.00,,,0.00,WUHU21623XXSP,2013-05-06 10:34:00,
2013-05-06 05:39:00,53.8,44.9,29.97,NNE,22,0.0,7.8,72,0.00,,,0.00,WUHU21623XXSP,2013-05-06 10:39:00,
2013-05-06 05:44:00,54.0,44.8,29.97,NE,45,0.0,7.8,71,0.00,,,0.00,WUHU21623XXSP,2013-05-06 10:44:00,
2013-05-06 05:49:00,54.3,44.8,29.98,NNE,22,0.0,0.0,70,0.00,,,0.00,WUHU21623XXSP,2013-05-06 10:49:00,
2013-05-06 05:54:00,54.5,44.4,29.98,North,0,4.9,4.9,69,0.00,,,0.00,WUHU21623XXSP,2013-05-06 10:54:00,
2013-05-06 05:59:00,54.3,44.5,29.98,NE,45,0.0,4.9,70,0.00,,,0.00,WUHU21623XXSP,2013-05-06 10:59:00,
2013-05-06 06:04:00,54.3,45.1,29.99,NE,45,0.0,0.0,71,0.00,,,0.00,WUHU21623XXSP,2013-05-06 11:04:00,
2013-05-06 06:09:00,54.3,44.6,29.99,NE,45,2.2,2.2,70,0.00,,,0.00,WUHU21623XXSP,2013-05-06 11:09:00,
2013-05-06 06:14:00,54.3,45.1,29.99,NE,45,0.0,2.2,71,0.00,,,0.00,WUHU21623XXSP,2013-05-06 11:14:00,
2013-05-06 06:19:00,54.3,45.1,29.99,NNE,22,0.0,0.0,71,0.00,,,0.00,WUHU21623XXSP,2013-05-06 11:19:00,
2013-05-06 06:24:00,54.3,45.1,29.99,NNE,22,0.0,0.0,71,0.00,,,0.00,WUHU21623XXSP,2013-05-06 11:24:00,
2013-05-06 06:29:00,54.5,45.0,29.99,NNE,22,0.0,0.0,70,0.00,,,0.00,WUHU21623XXSP,2013-05-06 11:29:00,
2013-05-06 06:34:00,54.5,45.0,29.99,NE,45,0.0,2.9,70,0.00,,,0.00,WUHU21623XXSP,2013-05-06 11:34:00,
2013-05-06 06:39:00,54.5,45.0,29.99,NNE,22,2.2,2.9,70,0.00,,,0.00,WUHU21623XXSP,2013-05-06 11:39:00,
2013-05-06 06:44:00,54.7,45.1,29.99,North,0,0.0,2.2,70,0.00,,,0.00,WUHU21623XXSP,2013-05-06 11:44:00,
2013-05-06 06:49:00,54.9,44.9,29.99,North,0,0.9,0.9,69,0.00,,,0.00,WUHU21623XXSP,2013-05-06 11:49:00,
2013-05-06 06:54:00,55.0,45.1,29.99,NNE,22,0.0,0.9,69,0.00,,,0.00,WUHU21623XXSP,2013-05-06 11:54:00,
2013-05-06 06:59:00,55.2,44.9,29.99,NNE,22,0.0,0.9,68,0.00,,,0.00,WUHU21623XXSP,2013-05-06 11:59:00,
2013-05-06 07:04:00,55.4,44.6,30.00,NE,45,2.5,2.5,67,0.00,,,0.00,WUHU21623XXSP,2013-05-06 12:04:00,
2013-05-06 07:09:00,55.6,44.8,30.00,NE,45,4.5,4.5,67,0.00,,,0.00,WUHU21623XXSP,2013-05-06 12:09:00,
2013-05-06 07:14:00,55.9,44.7,30.00,NE,45,0.0,4.5,66,0.00,,,0.00,WUHU21623XXSP,2013-05-06 12:14:00,
2013-05-06 07:19:00,56.1,44.9,30.00,NE,45,0.0,0.0,66,0.00,,,0.00,WUHU21623XXSP,2013-05-06 12:19:00,
2013-05-06 07:24:00,56.3,44.6,30.00,ENE,67,0.0,0.0,65,0.00,,,0.00,WUHU21623XXSP,2013-05-06 12:24:00,
2013-05-06 07:29:00,56.7,44.6,30.00,ENE,67,0.0,0.0,64,0.00,,,0.00,WUHU21623XXSP,2013-05-06 12:29:00,
2013-05-06 07:34:00,57.0,44.9,30.00,NE,45,0.0,2.7,64,0.00,,,0.00,WUHU21623XXSP,2013-05-06 12:34:00,
2013-05-06 07:39:00,57.2,44.7,30.00,NNE,22,0.0,0.0,63,0.00,,,0.00,WUHU21623XXSP,2013-05-06 12:39:00,
2013-05-06 07:44:00,57.4,44.5,30.00,NNE,22,0.0,0.0,62,0.00,,,0.00,WUHU21623XXSP,2013-05-06 12:44:00,
2013-05-06 07:49:00,57.2,44.3,30.00,NNW,337,8.7,8.7,62,0.00,,,0.00,WUHU21623XXSP,2013-05-06 12:49:00,
2013-05-06 07:54:00,57.6,44.3,30.00,NNE,22,0.0,8.7,62,0.00,,,0.00,WUHU21623XXSP,2013-05-06 12:54:00,
2013-05-06 07:59:00,58.1,44.7,30.00,NE,45,0.0,0.0,61,0.00,,,0.00,WUHU21623XXSP,2013-05-06 12:59:00,
2013-05-06 08:04:00,58.8,45.4,30.01,ENE,67,0.0,0.0,61,0.00,,,0.00,WUHU21623XXSP,2013-05-06 13:04:00,
2013-05-06 08:09:00,58.8,45.0,30.00,ENE,67,0.0,0.0,60,0.00,,,0.00,WUHU21623XXSP,2013-05-06 13:09:00,
2013-05-06 08:14:00,58.8,44.5,30.01,NE,45,0.9,0.9,59,0.00,,,0.00,WUHU21623XXSP,2013-05-06 13:14:00,
2013-05-06 08:19:00,59.5,45.0,30.01,ENE,67,0.0,0.9,60,0.00,,,0.00,WUHU21623XXSP,2013-05-06 13:19:00,
2013-05-06 08:24:00,59.7,45.2,30.01,NE,45,6.7,6.7,59,0.00,,,0.00,WUHU21623XXSP,2013-05-06 13:24:00,
2013-05-06 08:29:00,60.4,46.1,30.01,NNE,22,0.0,6.7,59,0.00,,,0.00,WUHU21623XXSP,2013-05-06 13:29:00,
2013-05-06 08:34:00,61.0,46.6,30.01,NNE,22,4.3,6.7,59,0.00,,,0.00,WUHU21623XXSP,2013-05-06 13:34:00,
2013-05-06 08:39:00,61.5,45.6,30.01,North,0,4.3,4.3,56,0.00,,,0.00,WUHU21623XXSP,2013-05-06 13:39:00,
2013-05-06 08:44:00,62.1,46.0,30.01,NNE,22,0.0,4.3,56,0.00,,,0.00,WUHU21623XXSP,2013-05-06 13:44:00,
2013-05-06 08:49:00,62.2,45.8,30.01,NE,45,0.0,0.0,55,0.00,,,0.00,WUHU21623XXSP,2013-05-06 13:49:00,
2013-05-06 08:54:00,62.4,46.0,30.01,NE,45,5.8,6.9,53,0.00,,,0.00,WUHU21623XXSP,2013-05-06 13:54:00,
2013-05-06 08:59:00,63.1,46.0,30.01,ENE,67,3.8,6.9,53,0.00,,,0.00,WUHU21623XXSP,2013-05-06 13:59:00,
2013-05-06 09:04:00,63.1,45.6,30.01,ENE,67,2.7,3.8,53,0.00,,,0.00,WUHU21623XXSP,2013-05-06 14:04:00,
2013-05-06 09:09:00,63.5,46.0,30.01,ENE,67,8.3,8.3,53,0.00,,,0.00,WUHU21623XXSP,2013-05-06 14:09:00,
2013-05-06 09:14:00,63.7,45.6,30.01,ENE,67,9.2,9.2,51,0.00,,,0.00,WUHU21623XXSP,2013-05-06 14:14:00,
2013-05-06 09:19:00,64.2,45.5,30.01,NE,45,0.0,9.2,51,0.00,,,0.00,WUHU21623XXSP,2013-05-06 14:19:00,
2013-05-06 09:24:00,64.2,45.2,30.01,ENE,67,6.7,7.6,50,0.00,,,0.00,WUHU21623XXSP,2013-05-06 14:24:00,
2013-05-06 09:29:00,64.4,45.8,30.01,ENE,67,7.6,7.6,51,0.00,,,0.00,WUHU21623XXSP,2013-05-06 14:29:00,
2013-05-06 09:34:00,64.6,46.0,30.01,ENE,67,6.7,7.6,51,0.00,,,0.00,WUHU21623XXSP,2013-05-06 14:34:00,
2013-05-06 09:39:00,64.8,46.2,30.01,ENE,67,2.7,7.6,51,0.00,,,0.00,WUHU21623XXSP,2013-05-06 14:39:00,
2013-05-06 09:44:00,65.1,46.3,30.01,ENE,67,3.8,6.7,51,0.00,,,0.00,WUHU21623XXSP,2013-05-06 14:44:00,
2013-05-06 09:49:00,65.7,46.6,30.01,ENE,67,0.0,3.8,50,0.00,,,0.00,WUHU21623XXSP,2013-05-06 14:49:00,
2013-05-06 09:54:00,65.5,46.4,30.01,NE,45,0.0,2.9,50,0.00,,,0.00,WUHU21623XXSP,2013-05-06 14:54:00,
2013-05-06 09:59:00,65.7,46.0,30.01,ENE,67,0.0,8.5,49,0.00,,,0.00,WUHU21623XXSP,2013-05-06 14:59:00,
2013-05-06 10:04:00,66.0,46.8,30.01,ENE,67,0.0,8.5,50,0.00,,,0.00,WUHU21623XXSP,2013-05-06 15:04:00,
2013-05-06 10:09:00,66.4,47.3,30.01,ENE,67,0.0,0.0,50,0.00,,,0.00,WUHU21623XXSP,2013-05-06 15:09:00,
2013-05-06 10:14:00,66.4,46.7,30.01,ENE,67,0.0,0.0,49,0.00,,,0.00,WUHU21623XXSP,2013-05-06 15:14:00,
2013-05-06 10:19:00,66.7,47.6,30.01,ENE,67,0.0,0.0,50,0.00,,,0.00,WUHU21623XXSP,2013-05-06 15:19:00,
2013-05-06 10:24:00,67.1,46.7,30.01,NE,45,0.0,0.0,48,0.00,,,0.00,WUHU21623XXSP,2013-05-06 15:24:00,
2013-05-06 10:29:00,67.5,47.7,30.01,NNE,22,0.2,0.2,49,0.00,,,0.00,WUHU21623XXSP,2013-05-06 15:29:00,
2013-05-06 10:34:00,67.8,47.2,30.00,North,0,0.0,0.2,48,0.00,,,0.00,WUHU21623XXSP,2013-05-06 15:34:00,
2013-05-06 10:39:00,68.2,47.1,30.00,NNW,337,2.0,2.0,47,0.00,,,0.00,WUHU21623XXSP,2013-05-06 15:39:00,
2013-05-06 10:44:00,68.7,47.6,30.00,NE,45,0.0,7.2,47,0.00,,,0.00,WUHU21623XXSP,2013-05-06 15:44:00,
2013-05-06 10:49:00,68.9,47.2,30.00,ENE,67,1.6,7.2,46,0.00,,,0.00,WUHU21623XXSP,2013-05-06 15:49:00,
2013-05-06 10:54:00,69.3,47.9,30.00,ENE,67,1.6,1.6,47,0.00,,,0.00,WUHU21623XXSP,2013-05-06 15:54:00,
2013-05-06 10:59:00,69.8,48.0,30.00,ENE,67,0.0,4.9,46,0.00,,,0.00,WUHU21623XXSP,2013-05-06 15:59:00,
2013-05-06 11:04:00,70.2,47.7,30.00,East,90,4.3,7.4,45,0.00,,,0.00,WUHU21623XXSP,2013-05-06 16:04:00,
2013-05-06 11:09:00,70.3,47.9,30.00,East,90,0.0,7.4,45,0.00,,,0.00,WUHU21623XXSP,2013-05-06 16:09:00,
2013-05-06 11:14:00,70.5,48.0,30.00,ENE,67,0.0,8.5,45,0.00,,,0.00,WUHU21623XXSP,2013-05-06 16:14:00,
2013-05-06 11:19:00,70.9,48.0,29.99,NE,45,7.6,8.5,46,0.00,,,0.00,WUHU21623XXSP,2013-05-06 16:19:00,
2013-05-06 11:24:00,70.9,48.4,29.99,NE,45,2.0,7.6,45,0.00,,,0.00,WUHU21623XXSP,2013-05-06 16:24:00,
2013-05-06 11:29:00,70.9,49.0,29.99,East,90,7.2,7.4,46,0.00,,,0.00,WUHU21623XXSP,2013-05-06 16:29:00,
2013-05-06 11:34:00,70.7,48.2,29.99,NE,45,0.0,7.2,45,0.00,,,0.00,WUHU21623XXSP,2013-05-06 16:34:00,
2013-05-06 11:39:00,71.2,49.3,29.99,ENE,67,8.3,8.3,46,0.00,,,0.00,WUHU21623XXSP,2013-05-06 16:39:00,
2013-05-06 11:44:00,71.8,48.6,29.98,NE,45,3.6,8.3,44,0.00,,,0.00,WUHU21623XXSP,2013-05-06 16:44:00,
2013-05-06 11:49:00,71.4,48.3,29.98,NE,45,2.5,7.6,44,0.00,,,0.00,WUHU21623XXSP,2013-05-06 16:49:00,
2013-05-06 11:54:00,72.0,49.3,29.98,NNE,22,3.6,7.6,45,0.00,,,0.00,WUHU21623XXSP,2013-05-06 16:54:00,
2013-05-06 11:59:00,72.3,49.7,29.98,East,90,6.3,7.4,45,0.00,,,0.00,WUHU21623XXSP,2013-05-06 16:59:00,
2013-05-06 12:04:00,72.1,49.5,29.98,NNW,337,2.9,7.4,45,0.00,,,0.00,WUHU21623XXSP,2013-05-06 17:04:00,
2013-05-06 12:09:00,72.1,48.9,29.97,NE,45,2.5,2.9,44,0.00,,,0.00,WUHU21623XXSP,2013-05-06 17:09:00,
2013-05-06 12:14:00,72.1,48.9,29.97,ENE,67,8.5,8.5,44,0.00,,,0.00,WUHU21623XXSP,2013-05-06 17:14:00,
2013-05-06 12:19:00,72.3,48.5,29.97,East,90,0.0,8.5,43,0.00,,,0.00,WUHU21623XXSP,2013-05-06 17:19:00,
2013-05-06 12:24:00,72.5,49.2,29.97,NE,45,0.0,12.5,44,0.00,,,0.00,WUHU21623XXSP,2013-05-06 17:24:00,
2013-05-06 12:29:00,72.9,50.1,29.97,ENE,67,5.4,12.5,45,0.00,,,0.00,WUHU21623XXSP,2013-05-06 17:29:00,
2013-05-06 12:34:00,73.0,48.5,29.97,ENE,67,4.5,6.0,42,0.00,,,0.00,WUHU21623XXSP,2013-05-06 17:34:00,
2013-05-06 12:39:00,73.0,48.5,29.97,NNE,22,0.0,10.3,42,0.00,,,0.00,WUHU21623XXSP,2013-05-06 17:39:00,
2013-05-06 12:44:00,72.5,48.6,29.97,NE,45,0.0,10.3,43,0.00,,,0.00,WUHU21623XXSP,2013-05-06 17:44:00,
2013-05-06 12:49:00,72.7,49.5,29.97,NNE,22,9.4,9.4,42,0.00,,,0.00,WUHU21623XXSP,2013-05-06 17:49:00,
2013-05-06 12:54:00,72.9,49.1,29.97,NE,45,0.0,9.4,42,0.00,,,0.00,WUHU21623XXSP,2013-05-06 17:54:00,
2013-05-06 12:59:00,73.0,49.1,29.97,NW,315,0.0,9.4,43,0.00,,,0.00,WUHU21623XXSP,2013-05-06 17:59:00,
2013-05-06 13:04:00,73.0,48.5,29.96,NE,45,0.4,0.4,42,0.00,,,0.00,WUHU21623XXSP,2013-05-06 18:04:00,
2013-05-06 13:09:00,73.2,49.3,29.96,NNW,337,11.0,11.0,43,0.00,,,0.00,WUHU21623XXSP,2013-05-06 18:09:00,
2013-05-06 13:14:00,73.2,49.3,29.96,ENE,67,9.8,11.0,43,0.00,,,0.00,WUHU21623XXSP,2013-05-06 18:14:00,
2013-05-06 13:19:00,73.6,49.0,29.96,NNE,22,0.0,11.0,42,0.00,,,0.00,WUHU21623XXSP,2013-05-06 18:19:00,
2013-05-06 13:24:00,73.4,49.4,29.96,ENE,67,8.1,9.8,43,0.00,,,0.00,WUHU21623XXSP,2013-05-06 18:24:00,
2013-05-06 13:29:00,73.2,48.7,29.95,North,0,11.0,11.0,42,0.00,,,0.00,WUHU21623XXSP,2013-05-06 18:29:00,
2013-05-06 13:34:00,73.6,48.7,29.96,ENE,67,0.0,11.0,42,0.00,,,0.00,WUHU21623XXSP,2013-05-06 18:34:00,
2013-05-06 13:39:00,73.6,49.0,29.96,NE,45,0.0,11.0,42,0.00,,,0.00,WUHU21623XXSP,2013-05-06 18:39:00,
2013-05-06 13:44:00,73.9,49.3,29.95,NNE,22,0.0,8.1,42,0.00,,,0.00,WUHU21623XXSP,2013-05-06 18:44:00,
2013-05-06 13:49:00,73.8,48.6,29.95,ENE,67,0.0,8.1,41,0.00,,,0.00,WUHU21623XXSP,2013-05-06 18:49:00,
2013-05-06 13:54:00,73.8,48.6,29.96,NE,45,2.5,6.5,41,0.00,,,0.00,WUHU21623XXSP,2013-05-06 18:54:00,
2013-05-06 13:59:00,73.9,48.7,29.96,NNE,22,5.6,5.6,41,0.00,,,0.00,WUHU21623XXSP,2013-05-06 18:59:00,
2013-05-06 14:05:00,74.1,48.9,29.96,ENE,67,0.0,5.6,40,0.00,,,0.00,WUHU21623XXSP,2013-05-06 19:05:00,
2013-05-06 14:10:00,73.9,48.1,29.96,NE,45,2.9,2.9,40,0.00,,,0.00,WUHU21623XXSP,2013-05-06 19:10:00,
2013-05-06 14:14:00,73.9,48.7,29.96,ENE,67,9.8,9.8,41,0.00,,,0.00,WUHU21623XXSP,2013-05-06 19:14:00,
2013-05-06 14:20:00,73.9,48.3,29.95,North,0,0.0,9.8,41,0.00,,,0.00,WUHU21623XXSP,2013-05-06 19:20:00,
2013-05-06 14:25:00,73.8,48.1,29.96,East,90,7.6,10.1,40,0.00,,,0.00,WUHU21623XXSP,2013-05-06 19:25:00,
2013-05-06 14:30:00,73.6,48.6,29.95,ENE,67,2.5,10.1,41,0.00,,,0.00,WUHU21623XXSP,2013-05-06 19:30:00,
2013-05-06 14:34:00,73.6,48.4,29.96,NE,45,1.8,4.0,41,0.00,,,0.00,WUHU21623XXSP,2013-05-06 19:34:00,
2013-05-06 14:39:00,73.8,48.6,29.96,ENE,67,5.6,5.6,40,0.00,,,0.00,WUHU21623XXSP,2013-05-06 19:39:00,
2013-05-06 14:44:00,73.6,48.4,29.95,WSW,247,6.0,8.1,41,0.00,,,0.00,WUHU21623XXSP,2013-05-06 19:44:00,
2013-05-06 14:49:00,73.2,48.1,29.95,North,0,0.0,8.1,41,0.00,,,0.00,WUHU21623XXSP,2013-05-06 19:49:00,
2013-05-06 14:54:00,73.2,47.5,29.95,ENE,67,11.4,11.4,40,0.00,,,0.00,WUHU21623XXSP,2013-05-06 19:54:00,
2013-05-06 14:59:00,73.2,48.7,29.95,NE,45,0.0,11.4,42,0.00,,,0.00,WUHU21623XXSP,2013-05-06 19:59:00,
2013-05-06 15:04:00,73.8,49.2,29.96,North,0,0.0,5.8,42,0.00,,,0.00,WUHU21623XXSP,2013-05-06 20:04:00,
2013-05-06 15:09:00,73.4,48.8,29.95,NNE,22,1.8,5.8,42,0.00,,,0.00,WUHU21623XXSP,2013-05-06 20:09:00,
2013-05-06 15:14:00,73.2,48.4,29.95,ENE,67,2.9,2.9,41,0.00,,,0.00,WUHU21623XXSP,2013-05-06 20:14:00,
2013-05-06 15:19:00,73.0,48.5,29.95,NE,45,5.8,6.0,42,0.00,,,0.00,WUHU21623XXSP,2013-05-06 20:19:00,
2013-05-06 15:24:00,73.2,49.3,29.95,NE,45,0.0,6.0,43,0.00,,,0.00,WUHU21623XXSP,2013-05-06 20:24:00,
2013-05-06 15:30:00,73.2,49.3,29.95,ENE,67,0.0,5.8,42,0.00,,,0.00,WUHU21623XXSP,2013-05-06 20:30:00,
2013-05-06 15:35:00,73.6,48.7,29.95,WSW,247,6.5,6.5,42,0.00,,,0.00,WUHU21623XXSP,2013-05-06 20:35:00,
2013-05-06 15:40:00,74.1,50.1,29.95,NE,45,7.2,11.4,43,0.00,,,0.00,WUHU21623XXSP,2013-05-06 20:40:00,
2013-05-06 15:45:00,73.9,49.5,29.94,NE,45,0.4,11.4,42,0.00,,,0.00,WUHU21623XXSP,2013-05-06 20:45:00,
2013-05-06 15:50:00,73.9,49.3,29.94,WSW,247,10.7,10.7,42,0.00,,,0.00,WUHU21623XXSP,2013-05-06 20:50:00,
2013-05-06 15:55:00,74.1,49.2,29.94,ENE,67,0.0,10.7,41,0.00,,,0.00,WUHU21623XXSP,2013-05-06 20:55:00,
2013-05-06 15:59:00,73.8,48.7,29.94,ENE,67,7.8,7.8,41,0.00,,,0.00,WUHU21623XXSP,2013-05-06 20:59:00,
2013-05-06 16:05:00,73.2,48.1,29.94,NE,45,6.9,12.3,41,0.00,,,0.00,WUHU21623XXSP,2013-05-06 21:05:00,
2013-05-06 16:10:00,73.0,47.3,29.95,East,90,3.8,12.3,40,0.00,,,0.00,WUHU21623XXSP,2013-05-06 21:10:00,
2013-05-06 16:15:00,73.0,47.9,29.94,WSW,247,6.5,6.5,41,0.00,,,0.00,WUHU21623XXSP,2013-05-06 21:15:00,
2013-05-06 16:20:00,73.6,48.1,29.94,WSW,247,0.0,6.5,41,0.00,,,0.00,WUHU21623XXSP,2013-05-06 21:20:00,
2013-05-06 16:25:00,73.6,47.1,29.94,ENE,67,9.2,9.2,39,0.00,,,0.00,WUHU21623XXSP,2013-05-06 21:25:00,
2013-05-06 16:30:00,73.4,47.7,29.94,WSW,247,0.0,9.2,40,0.00,,,0.00,WUHU21623XXSP,2013-05-06 21:30:00,
2013-05-06 16:35:00,73.6,47.8,29.94,ENE,67,3.1,11.6,40,0.00,,,0.00,WUHU21623XXSP,2013-05-06 21:35:00,
2013-05-06 16:40:00,73.2,48.7,29.94,WSW,247,0.0,11.6,42,0.00,,,0.00,WUHU21623XXSP,2013-05-06 21:40:00,
2013-05-06 16:45:00,73.9,49.2,29.94,WSW,247,0.0,2.7,41,0.00,,,0.00,WUHU21623XXSP,2013-05-06 21:45:00,
2013-05-06 16:50:00,73.4,48.3,29.94,WSW,247,2.2,2.2,41,0.00,,,0.00,WUHU21623XXSP,2013-05-06 21:50:00,
2013-05-06 16:55:00,73.0,47.9,29.94,NE,45,0.0,2.2,42,0.00,,,0.00,WUHU21623XXSP,2013-05-06 21:55:00,
2013-05-06 17:00:00,73.2,47.9,29.94,NE,45,0.0,0.0,41,0.00,,,0.00,WUHU21623XXSP,2013-05-06 22:00:00,
2013-05-06 17:05:00,72.5,47.4,29.94,NE,45,4.0,4.0,41,0.00,,,0.00,WUHU21623XXSP,2013-05-06 22:05:00,
2013-05-06 17:10:00,72.3,47.3,29.94,ENE,67,7.6,7.6,41,0.00,,,0.00,WUHU21623XXSP,2013-05-06 22:10:00,
2013-05-06 17:15:00,72.0,47.0,29.94,WSW,247,0.0,7.6,41,0.00,,,0.00,WUHU21623XXSP,2013-05-06 22:15:00,
2013-05-06 17:20:00,72.3,47.3,29.94,WSW,247,3.4,3.4,41,0.00,,,0.00,WUHU21623XXSP,2013-05-06 22:20:00,
2013-05-06 17:25:00,72.7,47.0,29.94,WSW,247,9.8,9.8,40,0.00,,,0.00,WUHU21623XXSP,2013-05-06 22:25:00,
2013-05-06 17:30:00,72.1,45.8,29.94,North,0,0.0,9.8,39,0.00,,,0.00,WUHU21623XXSP,2013-05-06 22:30:00,
2013-05-06 17:35:00,72.0,46.4,29.95,North,0,0.0,9.8,41,0.00,,,0.00,WUHU21623XXSP,2013-05-06 22:35:00,
2013-05-06 17:40:00,71.8,47.0,29.95,WNW,292,9.6,9.6,41,0.00,,,0.00,WUHU21623XXSP,2013-05-06 22:40:00,
2013-05-06 17:45:00,71.6,46.0,29.95,ENE,67,6.0,9.6,40,0.00,,,0.00,WUHU21623XXSP,2013-05-06 22:45:00,
2013-05-06 17:50:00,70.9,45.7,29.95,NE,45,4.7,7.4,40,0.00,,,0.00,WUHU21623XXSP,2013-05-06 22:50:00,
2013-05-06 17:55:00,70.3,44.9,29.95,NNE,22,5.8,5.8,40,0.00,,,0.00,WUHU21623XXSP,2013-05-06 22:55:00,
2013-05-06 18:00:00,70.0,42.4,29.95,North,0,17.0,17.0,37,0.00,,,0.00,WUHU21623XXSP,2013-05-06 23:00:00,
2013-05-06 18:05:00,69.1,41.6,29.95,NE,45,0.0,17.0,37,0.00,,,0.00,WUHU21623XXSP,2013-05-06 23:05:00,
2013-05-06 18:10:00,69.1,42.3,29.95,NE,45,0.0,2.9,38,0.00,,,0.00,WUHU21623XXSP,2013-05-06 23:10:00,
2013-05-06 18:15:00,68.7,41.2,29.95,NNE,22,0.0,0.0,37,0.00,,,0.00,WUHU21623XXSP,2013-05-06 23:15:00,
2013-05-06 18:20:00,68.2,41.5,29.95,NNE,22,0.0,8.3,38,0.00,,,0.00,WUHU21623XXSP,2013-05-06 23:20:00,
2013-05-06 18:25:00,67.8,41.2,29.95,NNE,22,0.0,8.3,38,0.00,,,0.00,WUHU21623XXSP,2013-05-06 23:25:00,
2013-05-06 18:30:00,67.6,41.2,29.96,NE,45,0.0,0.0,38,0.00,,,0.00,WUHU21623XXSP,2013-05-06 23:30:00,
2013-05-06 18:35:00,67.3,40.8,29.96,NNE,22,0.0,3.6,38,0.00,,,0.00,WUHU21623XXSP,2013-05-06 23:35:00,
2013-05-06 18:40:00,66.7,40.7,29.96,WNW,292,0.0,3.6,38,0.00,,,0.00,WUHU21623XXSP,2013-05-06 23:40:00,
2013-05-06 18:45:00,66.6,39.5,29.96,WNW,292,0.0,0.0,37,0.00,,,0.00,WUHU21623XXSP,2013-05-06 23:45:00,
2013-05-06 18:50:00,66.0,39.6,29.96,NE,45,0.0,0.0,38,0.00,,,0.00,WUHU21623XXSP,2013-05-06 23:50:00,
2013-05-06 18:55:00,65.7,40.1,29.96,ENE,67,0.0,2.2,39,0.00,,,0.00,WUHU21623XXSP,2013-05-06 23:55:00,
2013-05-06 19:00:00,65.1,40.2,29.96,NE,45,3.4,3.4,40,0.00,,,0.00,WUHU21623XXSP,2013-05-07 00:00:00,
2013-05-06 19:05:00,64.9,40.2,29.96,NNE,22,0.0,3.4,40,0.00,,,0.00,WUHU21623XXSP,2013-05-07 00:05:00,
2013-05-06 19:10:00,64.8,40.0,29.96,NNE,22,0.0,1.3,41,0.00,,,0.00,WUHU21623XXSP,2013-05-07 00:10:00,
2013-05-06 19:15:00,64.8,40.5,29.97,NE,45,0.0,7.2,41,0.00,,,0.00,WUHU21623XXSP,2013-05-07 00:15:00,
2013-05-06 19:20:00,64.2,41.1,29.97,NE,45,0.0,7.2,43,0.00,,,0.00,WUHU21623XXSP,2013-05-07 00:20:00,
2013-05-06 19:25:00,63.9,41.4,29.98,ENE,67,0.0,2.0,44,0.00,,,0.00,WUHU21623XXSP,2013-05-07 00:25:00,
2013-05-06 19:30:00,63.3,40.9,29.98,ENE,67,6.0,6.0,44,0.00,,,0.00,WUHU21623XXSP,2013-05-07 00:30:00,
2013-05-06 19:35:00,62.8,39.8,29.98,ENE,67,0.0,6.0,43,0.00,,,0.00,WUHU21623XXSP,2013-05-07 00:35:00,
2013-05-06 19:40:00,62.4,39.5,29.98,ENE,67,0.0,6.0,43,0.00,,,0.00,WUHU21623XXSP,2013-05-07 00:40:00,
2013-05-06 19:45:00,62.2,40.7,29.98,ENE,67,5.8,5.8,45,0.00,,,0.00,WUHU21623XXSP,2013-05-07 00:45:00,
2013-05-06 19:50:00,61.9,40.7,29.98,NE,45,0.0,5.8,46,0.00,,,0.00,WUHU21623XXSP,2013-05-07 00:50:00,
2013-05-06 19:55:00,61.5,41.2,29.98,NE,45,0.0,0.0,47,0.00,,,0.00,WUHU21623XXSP,2013-05-07 00:55:00,
2013-05-06 20:00:00,61.3,41.4,29.99,NE,45,0.0,0.0,48,0.00,,,0.00,WUHU21623XXSP,2013-05-07 01:00:00,
2013-05-06 20:05:00,61.0,41.1,29.99,NE,45,0.0,0.0,48,0.00,,,0.00,WUHU21623XXSP,2013-05-07 01:05:00,
2013-05-06 20:10:00,60.6,41.3,29.99,NE,45,0.0,0.0,49,0.00,,,0.00,WUHU21623XXSP,2013-05-07 01:10:00,
2013-05-06 20:15:00,60.4,41.8,30.00,NE,45,0.0,0.0,50,0.00,,,0.00,WUHU21623XXSP,2013-05-07 01:15:00,
2013-05-06 20:20:00,60.1,42.2,30.00,ENE,67,0.0,0.0,51,0.00,,,0.00,WUHU21623XXSP,2013-05-07 01:20:00,
2013-05-06 20:25:00,59.7,41.6,30.00,ENE,67,3.1,3.1,51,0.00,,,0.00,WUHU21623XXSP,2013-05-07 01:25:00,
2013-05-06 20:30:00,59.2,41.1,30.00,ENE,67,5.4,5.4,51,0.00,,,0.00,WUHU21623XXSP,2013-05-07 01:30:00,
2013-05-06 20:35:00,58.8,41.2,30.00,ENE,67,1.6,5.4,52,0.00,,,0.00,WUHU21623XXSP,2013-05-07 01:35:00,
2013-05-06 20:40:00,58.8,41.2,30.00,ENE,67,7.4,7.4,52,0.00,,,0.00,WUHU21623XXSP,2013-05-07 01:40:00,
2013-05-06 20:45:00,58.3,40.7,30.00,ENE,67,0.0,7.4,52,0.00,,,0.00,WUHU21623XXSP,2013-05-07 01:45:00,
2013-05-06 20:50:00,57.9,40.4,30.01,NE,45,3.4,4.7,52,0.00,,,0.00,WUHU21623XXSP,2013-05-07 01:50:00,
2013-05-06 20:55:00,57.6,40.6,30.01,ENE,67,1.8,12.1,53,0.00,,,0.00,WUHU21623XXSP,2013-05-07 01:55:00,
2013-05-06 21:00:00,57.0,40.4,30.01,ENE,67,1.8,12.1,53,0.00,,,0.00,WUHU21623XXSP,2013-05-07 02:00:00,
2013-05-06 21:05:00,56.5,39.9,30.01,ENE,67,0.0,1.8,53,0.00,,,0.00,WUHU21623XXSP,2013-05-07 02:05:00,
2013-05-06 21:10:00,56.3,39.5,30.02,ENE,67,0.0,0.0,53,0.00,,,0.00,WUHU21623XXSP,2013-05-07 02:10:00,
2013-05-06 21:15:00,55.9,40.4,30.02,ENE,67,0.0,0.0,56,0.00,,,0.00,WUHU21623XXSP,2013-05-07 02:15:00,
2013-05-06 21:20:00,55.8,40.4,30.02,ENE,67,2.2,2.2,56,0.00,,,0.00,WUHU21623XXSP,2013-05-07 02:20:00,
2013-05-06 21:25:00,55.6,40.5,30.02,ENE,67,0.0,2.2,57,0.00,,,0.00,WUHU21623XXSP,2013-05-07 02:25:00,
2013-05-06 21:30:00,55.2,40.6,30.03,ENE,67,0.0,2.2,58,0.00,,,0.00,WUHU21623XXSP,2013-05-07 02:30:00,
2013-05-06 21:35:00,55.2,40.6,30.02,ENE,67,0.0,0.0,58,0.00,,,0.00,WUHU21623XXSP,2013-05-07 02:35:00,
2013-05-06 21:40:00,55.0,40.9,30.02,ENE,67,0.0,0.0,59,0.00,,,0.00,WUHU21623XXSP,2013-05-07 02:40:00,
2013-05-06 21:45:00,54.7,40.6,30.02,ENE,67,0.0,0.0,59,0.00,,,0.00,WUHU21623XXSP,2013-05-07 02:45:00,
2013-05-06 21:50:00,54.7,40.6,30.02,ENE,67,1.8,1.8,59,0.00,,,0.00,WUHU21623XXSP,2013-05-07 02:50:00,
2013-05-06 21:55:00,54.3,40.9,30.02,ENE,67,0.0,1.8,60,0.00,,,0.00,WUHU21623XXSP,2013-05-07 02:55:00,
2013-05-06 22:00:00,54.1,40.7,30.02,ENE,67,3.1,3.1,60,0.00,,,0.00,WUHU21623XXSP,2013-05-07 03:00:00,
2013-05-06 22:05:00,54.1,40.6,30.02,ENE,67,0.0,3.1,60,0.00,,,0.00,WUHU21623XXSP,2013-05-07 03:05:00,
2013-05-06 22:10:00,54.0,40.8,30.01,ENE,67,0.0,0.0,61,0.00,,,0.00,WUHU21623XXSP,2013-05-07 03:10:00,
2013-05-06 22:15:00,53.8,40.3,30.01,ENE,67,0.0,0.0,60,0.00,,,0.00,WUHU21623XXSP,2013-05-07 03:15:00,
2013-05-06 22:20:00,53.8,40.3,30.01,ENE,67,0.0,0.0,60,0.00,,,0.00,WUHU21623XXSP,2013-05-07 03:20:00,
2013-05-06 22:25:00,53.6,40.1,30.01,ENE,67,0.0,0.0,60,0.00,,,0.00,WUHU21623XXSP,2013-05-07 03:25:00,
2013-05-06 22:30:00,53.2,39.9,30.01,NE,45,0.0,0.0,61,0.00,,,0.00,WUHU21623XXSP,2013-05-07 03:30:00,
2013-05-06 22:35:00,53.1,40.0,30.01,NE,45,0.0,0.0,61,0.00,,,0.00,WUHU21623XXSP,2013-05-07 03:35:00,
2013-05-06 22:40:00,52.9,39.8,30.01,NE,45,0.0,0.0,61,0.00,,,0.00,WUHU21623XXSP,2013-05-07 03:40:00,
2013-05-06 22:45:00,52.5,39.8,30.01,NE,45,0.0,0.0,62,0.00,,,0.00,WUHU21623XXSP,2013-05-07 03:45:00,
2013-05-06 22:50:00,52.3,39.6,30.01,NE,45,0.0,0.0,62,0.00,,,0.00,WUHU21623XXSP,2013-05-07 03:50:00,
2013-05-06 22:55:00,52.2,39.6,30.01,NE,45,0.0,0.0,62,0.00,,,0.00,WUHU21623XXSP,2013-05-07 03:55:00,
2013-05-06 23:00:00,52.0,39.3,30.01,NE,45,0.0,0.0,62,0.00,,,0.00,WUHU21623XXSP,2013-05-07 04:00:00,
2013-05-06 23:01:00,52.0,39.3,30.01,NE,45,0.0,0.0,62,0.00,,,0.00,WUHU21623XXSP,2013-05-07 04:01:00,
2013-05-06 23:06:00,51.8,39.5,30.01,NE,45,0.0,0.0,63,0.00,,,0.00,WUHU21623XXSP,2013-05-07 04:06:00,
2013-05-06 23:11:00,51.6,39.4,30.01,NE,45,0.0,0.0,63,0.00,,,0.00,WUHU21623XXSP,2013-05-07 04:11:00,
2013-05-06 23:16:00,51.6,39.4,30.01,NE,45,0.0,0.0,63,0.00,,,0.00,WUHU21623XXSP,2013-05-07 04:16:00,
2013-05-06 23:21:00,51.6,39.4,30.01,NE,45,0.0,0.0,63,0.00,,,0.00,WUHU21623XXSP,2013-05-07 04:21:00,
2013-05-06 23:26:00,51.4,39.6,30.01,NE,45,0.0,0.0,64,0.00,,,0.00,WUHU21623XXSP,2013-05-07 04:26:00,
2013-05-06 23:31:00,51.4,39.6,30.01,NE,45,0.0,0.0,64,0.00,,,0.00,WUHU21623XXSP,2013-05-07 04:31:00,
2013-05-06 23:36:00,51.4,39.6,30.01,NE,45,0.0,0.0,64,0.00,,,0.00,WUHU21623XXSP,2013-05-07 04:36:00,
2013-05-06 23:41:00,51.3,39.8,30.01,NE,45,0.0,0.0,65,0.00,,,0.00,WUHU21623XXSP,2013-05-07 04:41:00,
2013-05-06 23:46:00,51.1,39.7,30.01,NE,45,0.0,0.0,65,0.00,,,0.00,WUHU21623XXSP,2013-05-07 04:46:00,
2013-05-06 23:51:00,50.9,39.5,30.01,NE,45,0.0,0.0,65,0.00,,,0.00,WUHU21623XXSP,2013-05-07 04:51:00,
2013-05-06 23:56:00,50.5,39.3,30.01,NE,45,0.0,0.0,65,0.00,,,0.00,WUHU21623XXSP,2013-05-07 04:56:00,